Location: Newark
(16.3678°N, 77.8722°E)
Time: 21:08:48
(UTC+00:00)

A-11 Canister half - Visible Passes

Search period start: 14 December 2019 00:00
Search period end: 24 December 2019 00:00
Orbit: 1526 x 1683 km, 47.3° (Epoch: 13 December)

Date Brightness Start Highest point End Pass type
(mag) Time Alt. Az. Time Alt. Az. Time Alt. Az.
14 Dec 10.6 21:25:13 23° NE 21:25:13 23° NE 21:28:18 10° NE visible
14 Dec 9.7 23:23:34 32° NW 23:23:49 32° NW 23:32:33 10° NNE visible
15 Dec 11.1 21:05:34 14° NE 21:05:34 14° NE 21:06:34 10° NE visible
15 Dec 9.8 23:03:56 32° NNW 23:03:56 32° NNW 23:10:58 10° NNE visible
16 Dec 10.1 22:44:08 28° N 22:44:08 28° N 22:49:23 10° NNE visible
17 Dec 10.7 00:46:39 10° NNW 00:48:33 11° NNW 00:50:27 10° N visible
17 Dec 10.4 22:24:12 22° N 22:24:12 22° N 22:27:47 10° NNE visible
18 Dec 10.7 00:24:05 10° NW 00:26:40 11° NNW 00:29:17 10° N visible
18 Dec 10.7 22:04:09 17° NNE 22:04:09 17° NNE 22:06:12 10° NNE visible
19 Dec 10.6 00:02:29 11° NNW 00:04:48 12° NNW 00:07:59 10° N visible
19 Dec 11.0 21:44:01 12° NNE 21:44:01 12° NNE 21:44:36 10° NNE visible
19 Dec 10.6 23:42:20 12° NNW 23:42:56 12° NNW 23:46:36 10° N visible
20 Dec 10.7 23:22:07 13° NNW 23:22:07 13° NNW 23:25:11 10° N visible
21 Dec 10.8 23:01:51 12° N 23:01:51 12° N 23:03:44 10° N visible
22 Dec 10.9 22:41:32 11° N 22:41:32 11° N 22:42:16 10° N visible
